Albany, GA

6:14 PM EDT on June 27, 2017 (GMT -0400)
Southwest Georgia Regional

Weather History for KABY - November, 2013

Change the Weather History Date:

Wednesday, November 6, 2013

  Actual Average Record
Temperature  
Mean Temperature 67 °F 62 °F  
Max Temperature 75 °F 75 °F 86 °F (2015)
Min Temperature 59 °F 48 °F 25 °F (1991)
Degree Days  
Heating Degree Days 0 5  
Month to date heating degree days 20 28  
Since 1 July heating degree days 61 78  
Cooling Degree Days 2 2  
Month to date cooling degree days 8 12  
Year to date cooling degree days 2396 2515  
Growing Degree Days 16 (Base 50)    
Moisture  
Dew Point 58 °F    
Average Humidity 82    
Maximum Humidity 100    
Minimum Humidity 64    
Precipitation  
Precipitation 0.00 in 0.09 in 0.21 in (2002)
Month to date precipitation 0.98 0.53  
Year to date precipitation 43.87 42.16  
Sea Level Pressure  
Sea Level Pressure 30.21 in    
Wind  
Wind Speed 5 mph (ENE)    
Max Wind Speed 13 mph    
Max Gust Speed 16 mph    
Visibility 10 miles    
Events      
T = Trace of Precipitation, MM = Missing Value Source: NWS Daily Summary

Daily Weather History Graph

Daily Weather History Graph

Search for Another Location

Airport or City:

Trip Planner

Search our weather history database for the weather conditions in past years. The results will help you decide how hot, cold, wet, or windy it might be!

Date:

Astronomy

Nov. 06, 2013 Rise Set
Actual Time 6:57 AM EST 5:43 PM EST
Civil Twilight 6:31 AM EST 6:08 PM EST
Nautical Twilight 6:02 AM EST 6:37 PM EST
Astronomical Twilight 5:34 AM EST 7:06 PM EST
Moon 10:06 AM EST (11/6) 8:51 PM EST (11/6)
Length of Visible Light 11h 36m
Length of Day
10h 46m
Waxing Crescent, 13% of the Moon is Illuminated
Nov 6
Waxing Crescent
Nov 10
First Quarter
Nov 17
Full
Nov 25
Last Quarter
Dec 2
New

Hourly Weather History & Observations

Time (EST) Temp. Dew Point Humidity Pressure Visibility Wind Dir Wind Speed Gust Speed Precip Events Conditions
12:53 AM 62.1 °F 51.1 °F 67% 30.27 in 10.0 mi NE 9.2 mph - N/A   Overcast
1:53 AM 61.0 °F 53.1 °F 75% 30.26 in 10.0 mi NE 8.1 mph - N/A   Overcast
2:18 AM 60.8 °F 53.6 °F 77% 30.26 in 10.0 mi NE 6.9 mph - N/A   Overcast
2:53 AM 61.0 °F 54.0 °F 78% 30.25 in 10.0 mi NE 9.2 mph - N/A   Overcast
3:53 AM 61.0 °F 55.9 °F 83% 30.24 in 10.0 mi NE 11.5 mph - N/A   Overcast
4:44 AM 60.8 °F 57.2 °F 88% 30.24 in 10.0 mi NE 8.1 mph - N/A   Overcast
4:53 AM 61.0 °F 57.9 °F 90% 30.24 in 10.0 mi ENE 8.1 mph - N/A   Overcast
5:53 AM 62.1 °F 57.9 °F 86% 30.24 in 10.0 mi ENE 9.2 mph - N/A   Overcast
6:18 AM 62.6 °F 57.2 °F 82% 30.24 in 10.0 mi ENE 8.1 mph - N/A   Overcast
6:53 AM 61.0 °F 57.9 °F 90% 30.25 in 10.0 mi ENE 8.1 mph - N/A   Overcast
7:53 AM 62.1 °F 57.9 °F 86% 30.25 in 10.0 mi ENE 6.9 mph - N/A   Overcast
8:53 AM 63.0 °F 57.9 °F 84% 30.27 in 10.0 mi East 11.5 mph - N/A   Overcast
9:53 AM 64.0 °F 57.9 °F 80% 30.27 in 10.0 mi ENE 8.1 mph - N/A   Overcast
10:53 AM 64.9 °F 57.9 °F 78% 30.27 in 10.0 mi ENE 9.2 mph - N/A   Overcast
11:53 AM 66.0 °F 57.9 °F 75% 30.25 in 10.0 mi ENE 8.1 mph - N/A   Overcast
12:53 PM 69.1 °F 59.0 °F 70% 30.21 in 10.0 mi ENE 3.5 mph - N/A   Overcast
1:00 PM 69.8 °F 59.0 °F 68% 30.21 in 10.0 mi NE 5.8 mph - N/A   Mostly Cloudy
1:53 PM 72.0 °F 60.1 °F 66% 30.19 in 10.0 mi Variable 3.5 mph - N/A   Scattered Clouds
2:53 PM 72.0 °F 60.1 °F 66% 30.17 in 10.0 mi Calm Calm - N/A   Overcast
3:53 PM 73.9 °F 61.0 °F 64% 30.16 in 10.0 mi East 6.9 mph - N/A   Scattered Clouds
4:53 PM 73.0 °F 61.0 °F 66% 30.15 in 10.0 mi East 5.8 mph - N/A   Clear
5:53 PM 68.0 °F 61.0 °F 78% 30.15 in 10.0 mi East 3.5 mph - N/A   Clear
6:53 PM 66.0 °F 61.0 °F 84% 30.16 in 10.0 mi Calm Calm - N/A   Clear
7:53 PM 63.0 °F 60.1 °F 90% 30.16 in 10.0 mi Calm Calm - N/A   Clear
8:53 PM 61.0 °F 60.1 °F 97% 30.16 in 7.0 mi Calm Calm - N/A   Clear
9:53 PM 60.1 °F 57.9 °F 93% 30.15 in 10.0 mi Calm Calm - N/A   Clear
10:53 PM 60.1 °F 59.0 °F 96% 30.14 in 10.0 mi Calm Calm - N/A   Clear
11:53 PM 60.1 °F 57.9 °F 93% 30.14 in 10.0 mi Calm Calm - N/A   Clear